CDT,Max TemperatureF,Mean TemperatureF,Min TemperatureF,Max Dew PointF,MeanDew PointF,Min DewpointF,Max Humidity, Mean Humidity, Min Humidity, Max Sea Level PressureIn, Mean Sea Level PressureIn, Min Sea Level PressureIn, Max VisibilityMiles, Mean VisibilityMiles, Min VisibilityMiles, Max Wind SpeedMPH, Mean Wind SpeedMPH, Max Gust SpeedMPH,PrecipitationIn, CloudCover, Events, WindDirDegrees
2013-10-1,67,51,35,35,31,27,70,46,22,29.92,29.80,29.64,10,10,9,26,13,33,0.00,1,,254
2013-10-2,65,50,34,37,30,23,82,52,21,30.06,30.00,29.92,10,10,10,20,7,24,0.00,2,,293
2013-10-3,53,46,38,35,34,32,85,68,50,30.34,30.17,30.05,10,10,10,17,10,21,0.00,3,,16
2013-10-4,43,34,24,37,34,24,92,76,59,30.46,30.39,30.28,10,10,6,18,11,23,0.01,7,Rain,15
2013-10-5,54,35,16,29,23,15,96,64,32,30.38,30.26,30.10,10,10,10,15,4,20,0.00,0,,356
2013-10-6,73,49,25,38,32,23,92,60,28,30.12,30.04,29.95,10,10,10,20,5,25,0.00,0,,233
2013-10-7,78,55,32,40,34,30,92,56,19,29.98,29.80,29.62,10,10,7,18,5,24,0.00,0,,194
2013-10-8,68,55,41,37,32,27,76,49,21,29.88,29.71,29.58,10,10,10,20,7,24,T,1,Rain,276
2013-10-9,63,48,32,39,35,28,82,59,36,30.11,30.03,29.89,10,10,10,14,5,17,0.10,1,,13
2013-10-10,66,55,43,46,42,37,89,63,37,30.01,29.82,29.69,10,10,7,16,5,22,0.02,3,Rain,99
2013-10-11,53,48,43,47,41,32,89,74,58,29.81,29.67,29.59,10,7,3,31,17,39,1.74,8,Rain,332
2013-10-12,56,44,31,32,29,27,82,59,35,30.27,30.06,29.82,10,5,4,21,11,29,0.00,0,,295
2013-10-13,57,41,24,33,28,21,92,62,32,30.39,30.33,30.29,10,9,5,13,4,16,0.00,1,,53
2013-10-14,44,40,35,36,34,31,85,74,62,30.36,30.30,30.25,10,10,10,22,11,30,0.04,8,Rain,34
2013-10-15,55,40,24,33,27,22,92,62,32,30.37,30.27,30.10,10,10,8,14,4,17,0.00,1,,256
2013-10-16,57,44,30,38,32,27,92,71,50,30.08,30.00,29.93,10,10,6,24,9,33,0.03,4,Rain,279
2013-10-17,50,41,32,33,29,23,89,63,36,30.17,30.11,30.06,10,9,6,17,9,25,T,6,,295
2013-10-18,49,40,31,38,32,29,92,69,46,30.08,30.00,29.86,10,9,7,24,11,32,T,7,Rain,289
2013-10-19,59,48,37,41,35,32,85,62,39,29.85,29.76,29.65,10,10,10,24,6,31,0.02,7,Rain,270
2013-10-20,44,32,20,41,31,18,92,73,54,30.10,29.92,29.67,10,10,7,30,12,37,T,7,Rain,341
2013-10-21,40,33,26,37,30,22,92,81,70,30.07,29.98,29.86,10,10,6,9,2,12,0.05,8,Rain-Snow,135
2013-10-22,44,39,34,38,33,29,92,81,70,30.18,30.10,30.00,10,10,8,14,4,16,0.02,8,Rain,343
2013-10-23,44,33,22,41,32,22,93,79,64,30.37,30.18,30.01,10,10,9,16,8,21,T,7,,360
2013-10-24,42,32,21,31,26,20,92,73,53,30.42,30.35,30.19,10,10,9,9,3,12,0.00,4,,183
2013-10-25,63,47,30,39,29,20,92,59,26,30.23,30.08,30.01,10,10,10,32,12,39,0.00,0,,277
2013-10-26,54,39,24,29,25,21,81,57,32,30.33,30.17,29.90,10,10,10,14,6,20,0.00,0,,232
2013-10-27,45,35,25,31,26,16,85,71,57,30.47,30.12,29.87,10,10,10,23,12,29,0.00,5,,57
2013-10-28,29,27,24,18,16,14,74,66,58,30.63,30.54,30.41,10,10,10,18,9,22,0.02,7,,81
2013-10-29,36,31,25,27,23,19,88,76,64,30.48,30.28,30.07,10,8,1,13,6,16,0.02,8,Snow,151
2013-10-30,46,38,29,32,29,26,92,75,58,30.05,29.87,29.70,10,10,10,15,5,20,0.00,5,,198
2013-10-31,55,42,28,33,29,24,89,64,38,29.68,29.64,29.57,10,10,10,17,7,23,T,3,,273